User: anonymous   Login
Location: Hilton Head Island
(32.2163°N, 80.7526°W)
Time: 04:30:43
(UTC-05:00)
Language:

S-56A Canister/Altair - Orbit

View from above orbital plane
View from above orbital plane
View from above satellite
View from above satellite

Ground track
Ground track

The orbit is defined by the following mean orbital elements,

1 00082U          26050.15689712 +.00000000 +00000-0 +21413-3 0 00009
2 00082  38.8556  78.1994 1166909  14.6279 348.5379 12.27860732    03
Epoch (UTC): 19 February 2026 03:45:55
Eccentricity: 0.1166909
inclination: 38.8556°
perigee height: 632 km
apogee height: 2485 km
right ascension of ascending node: 78.1994°
argument of perigee: 14.6279°
revolutions per day: 12.27860732
mean anomaly at epoch: 348.5379°

The dashed part of the orbit path shows where the satellite is in the earth's shadow,  

DLR